sat.trackr.live / text

‹ back to catalog

STARLINK-2355

NORAD 47895 · 2021-021AM

PAYLOAD ACTIVE UNKNOWN

§ Identity

Operator
Country
US
Launch date
2021-03-14
Launch site
AFETR
Launch vehicle
Mass (kg)
RCS (m²)

Purposes: comms

External: N2YO · Heavens-Above · Gunter

§ Orbital elements

Epoch: 2026-09-12T23:46:52.635936Z

Period
94.01 min
Inclination
53.1604°
Eccentricity
0.0001309
Mean motion
15.31699331 rev/d
Perigee alt
469.8 km
Apogee alt
471.6 km
Semi-major
6,848.9 km
B*
1.5216e-5
RAAN
116.5034°
Arg perigee
96.6273°
Mean anomaly
263.4877°
Rev number
30,492

§ Raw data

STARLINK-23551 47895U 21021AM  26255.99088699  .00000107  00000+0  15216-4 0  99932 47895  53.1604 116.5034 0001309  96.6273 263.4877 15.31699331304926

JSON: /api/v1/satellites/47895 · /tle

For live sub-satellite position, see the globe view (requires WebGL).

§ Visibility from observer

Set your observer location to see the next 7 days of passes ≥ 10°. The values pass through the URL so the page stays shareable.

No JS? Fill the form by hand. The geolocation button needs JavaScript.